SL-12 R/B(2), 25743

Orbit data source: Space-Track

SL-12 R/B(2), 25743 is space debris in HEO originally from a launch on Thu, 20 May 1999 UTC launched from the Tyuratam Missile And Space Complex (TTMTR). Debris objects in space refer to the collection of defunct objects orbiting the Earth. Examples of debris include non-operational satellites, rocket bodies, and fragments generated from explosions, collisions, or faulty payload assembly.

Loading next visibility...
Identifier
25743, 1999-027D
Orbit
HEO
Country
Flag of CISCIS
Related business
Manufacturer
RKKE
Mission
Spacecraft
Bus & Motor
BLOK DM2, Unknown motor
Mass
2,560 kg wet, 2,560 kg dry
Launch date (UTC)
1999-05-20 (27 years ago)
Launch vehicle
Unknown
Launch site
Tyuratam Missile And Space Complex (TTMTR)
Object type
Payload
Rocket body
Debris
Shape & HBR
Cyl + 1 Nozzle, 3.1 m
Radar Cross Section
23.684 m², Large (>1 m²)

Expand to show TLE details & history
Last TLE update: 2 days ago

TLE from 2 days ago
0 SL-12 R/B(2)
1 25743U 99027D   26171.45896255 -.00000137  00000-0  00000+0 0  9990
2 25743  16.5924 238.7084 5194343 179.1436  97.0112  1.87832945185935
Epoch: 2026-06-20T11:00Z
TLE epoch observation values (Epoch: 2026-06-20T11:00:54.364Z)
Latitude
-9.51821°
Longitude
130.63765°
Altitude
29,036.762 km
Speed
2.854 km/s
True Right ascension
13h 38m 08s
True Declination
-9° 30' 25"
Sunlit
Object was in daylight at epoch
Visualization orbit readout
Latitude
Unknown
Longitude
Unknown
Altitude
Unknown
Speed
Unknown
Apparent Right ascension
Unknown
Apparent Declination
Unknown
Sunlit
N/A
Visualization observer readout
Local Sidereal Time
23:09:09
Azimuth
Unknown
Elevation
Unknown
Doppler factor
Unknown
Orbital elements
Apogee altitude
35,785.474 km
Perigee altitude
6,957.343 km
Semi-major axis
27,749.546 km
Eccentricity
0.51943
Inclination
16.5924°
RAAN
238.7084°
Arg. of periapsis
179.1436°
True anomaly
145.50305°
Mean anomaly
97.0112°
Eccentric anomaly
122.19615°
Mean motion
0.46953 °/min
Orbital period
766.73 mins
BSTAR
0
Loading maneuver chart data...
Computing Atmospheric mass density...
Loading historical data...
Loading historical data...
Loading historical data...
Loading historical data...
Loading historical data...
Loading historical data...
Loading historical data...
Other satellites on launch #27 in the year 1999 (1999-05-20 UTC)

Documentation

Showing up to 5 results
|